Torna al catalogo

STARLINK-36502

AttivoComunicazioniVLEO
NORAD 67627·PAYLOAD·🇺🇸 United States

Lanciato Jan 30, 2026 da Cape Canaveral Space Force Station

Loading…

Prossimi Passaggi (prossime 24 ore)

TLE

AggiornatoSource: CelesTrak SupGP

Epoca: Sep 14, 2026, 23:00 UTC

1 67627C 26020L   26257.95881944 -.00037596  00000+0 -13617-2 0  2576
2 67627  43.0005 150.7932 0001350 269.3552 358.0953 15.27597932    14

Traccia STARLINK-36502 in tempo reale con AllMySat

Download on the App Store